Time,TemperatureF,DewpointF,PressureIn,WindDirection,WindDirectionDegrees,WindSpeedMPH,WindSpeedGustMPH,Humidity,HourlyPrecipIn,Conditions,Clouds,dailyrainin,SolarRadiationWatts/m^2,SoftwareType,DateUTC
2013-03-05 00:00:00,31.0,27.0,29.99,ENE,77,5.7,6.6,90,0.00,,,0.00,0,TxWx,2013-03-05 06:00:00,
2013-03-05 00:05:00,31.0,27.0,29.99,ESE,102,9.6,9.6,90,0.00,,,0.00,0,TxWx,2013-03-05 06:05:00,
2013-03-05 00:10:00,31.1,27.0,29.99,ESE,104,8.1,8.1,90,0.00,,,0.00,0,TxWx,2013-03-05 06:10:00,
2013-03-05 00:16:00,31.2,27.0,29.99,ENE,73,6.3,6.9,90,0.00,,,0.00,0,TxWx,2013-03-05 06:16:00,
2013-03-05 00:21:00,31.2,27.0,29.98,East,100,12.0,12.9,90,0.00,,,0.00,0,TxWx,2013-03-05 06:21:00,
2013-03-05 00:26:00,31.2,27.0,29.98,East,79,6.6,7.2,90,0.00,,,0.00,0,TxWx,2013-03-05 06:26:00,
2013-03-05 00:31:00,31.2,28.0,29.98,ESE,105,6.0,6.0,91,0.00,,,0.00,0,TxWx,2013-03-05 06:31:00,
2013-03-05 00:37:00,31.2,28.0,29.98,ESE,109,8.1,8.1,91,0.00,,,0.00,0,TxWx,2013-03-05 06:37:00,
2013-03-05 00:42:00,31.2,28.0,29.98,ENE,72,9.6,9.6,91,0.00,,,0.00,0,TxWx,2013-03-05 06:42:00,
2013-03-05 00:47:00,31.2,28.0,29.98,ENE,74,7.2,7.5,91,0.00,,,0.00,0,TxWx,2013-03-05 06:47:00,
2013-03-05 00:52:00,31.1,28.0,29.98,ENE,66,3.6,3.9,91,0.00,,,0.00,0,TxWx,2013-03-05 06:52:00,
2013-03-05 00:57:00,31.1,28.0,29.98,East,94,5.7,6.0,91,0.00,,,0.00,0,TxWx,2013-03-05 06:57:00,
2013-03-05 01:02:00,31.1,28.0,29.98,East,82,5.1,5.7,91,0.00,,,0.00,0,TxWx,2013-03-05 07:02:00,
2013-03-05 01:08:00,31.0,28.0,29.98,ESE,107,12.3,12.6,91,0.00,,,0.00,0,TxWx,2013-03-05 07:08:00,
2013-03-05 01:13:00,31.0,28.0,29.98,East,86,3.6,3.9,92,0.00,,,0.00,0,TxWx,2013-03-05 07:13:00,
2013-03-05 01:18:00,30.9,28.0,29.97,East,89,4.8,5.1,92,0.00,,,0.00,0,TxWx,2013-03-05 07:18:00,
2013-03-05 01:24:00,31.0,28.0,29.97,ENE,76,4.8,4.8,92,0.00,,,0.00,0,TxWx,2013-03-05 07:24:00,
2013-03-05 01:29:00,30.9,28.0,29.97,East,88,7.8,7.8,92,0.00,,,0.00,0,TxWx,2013-03-05 07:29:00,
2013-03-05 01:34:00,30.9,28.0,29.97,East,80,5.1,5.1,92,0.00,,,0.00,0,TxWx,2013-03-05 07:34:00,
2013-03-05 01:39:00,30.9,28.0,29.97,East,98,5.4,5.7,92,0.00,,,0.00,0,TxWx,2013-03-05 07:39:00,
2013-03-05 01:45:00,30.9,28.0,29.96,SE,125,9.9,9.9,92,0.00,,,0.00,0,TxWx,2013-03-05 07:45:00,
2013-03-05 01:50:00,30.9,28.0,29.96,ESE,123,6.9,6.9,92,0.00,,,0.00,0,TxWx,2013-03-05 07:50:00,
2013-03-05 01:55:00,31.0,28.0,29.96,South,185,4.5,5.1,92,0.00,,,0.00,0,TxWx,2013-03-05 07:55:00,
2013-03-05 02:00:00,31.0,28.0,29.95,ENE,73,5.4,5.7,92,0.00,,,0.00,0,TxWx,2013-03-05 08:00:00,
2013-03-05 02:05:00,31.0,28.0,29.95,East,91,5.7,5.7,92,0.00,,,0.00,0,TxWx,2013-03-05 08:05:00,
2013-03-05 02:10:00,31.0,28.0,29.95,ENE,70,8.1,8.1,92,0.00,,,0.00,0,TxWx,2013-03-05 08:10:00,
2013-03-05 02:16:00,31.0,28.0,29.95,NE,56,7.2,7.8,92,0.00,,,0.00,0,TxWx,2013-03-05 08:16:00,
2013-03-05 02:21:00,31.0,28.0,29.94,ENE,78,6.3,7.5,92,0.00,,,0.00,0,TxWx,2013-03-05 08:21:00,
2013-03-05 02:26:00,31.0,28.0,29.94,East,80,5.7,7.2,92,0.00,,,0.00,0,TxWx,2013-03-05 08:26:00,
2013-03-05 02:31:00,30.9,28.0,29.94,ESE,107,11.1,12.3,92,0.00,,,0.00,0,TxWx,2013-03-05 08:31:00,
2013-03-05 02:37:00,31.0,28.0,29.93,ESE,106,5.4,5.4,92,0.00,,,0.00,0,TxWx,2013-03-05 08:37:00,
2013-03-05 02:42:00,30.9,28.0,29.93,East,87,9.9,10.2,92,0.00,,,0.00,0,TxWx,2013-03-05 08:42:00,
2013-03-05 02:47:00,31.0,28.0,29.93,East,81,6.6,7.5,92,0.00,,,0.00,0,TxWx,2013-03-05 08:47:00,
2013-03-05 02:52:00,31.0,28.0,29.93,ENE,74,5.1,6.6,92,0.00,,,0.00,0,TxWx,2013-03-05 08:52:00,
2013-03-05 02:57:00,31.0,28.0,29.93,East,91,7.5,7.5,92,0.00,,,0.00,0,TxWx,2013-03-05 08:57:00,
2013-03-05 03:02:00,31.1,28.0,29.92,East,85,4.2,4.2,92,0.00,,,0.00,0,TxWx,2013-03-05 09:02:00,
2013-03-05 03:08:00,31.1,28.0,29.92,ENE,72,6.3,6.3,92,0.00,,,0.00,0,TxWx,2013-03-05 09:08:00,
2013-03-05 03:13:00,31.0,28.0,29.92,ENE,73,7.5,9.9,92,0.00,,,0.00,0,TxWx,2013-03-05 09:13:00,
2013-03-05 03:18:00,31.0,28.0,29.92,East,96,6.6,7.2,92,0.00,,,0.00,0,TxWx,2013-03-05 09:18:00,
2013-03-05 03:23:00,31.1,28.0,29.92,SE,128,10.2,10.2,92,0.00,,,0.00,0,TxWx,2013-03-05 09:23:00,
2013-03-05 03:28:00,31.1,28.0,29.92,East,96,7.8,8.1,92,0.00,,,0.00,0,TxWx,2013-03-05 09:28:00,
2013-03-05 03:33:00,31.2,28.0,29.92,ESE,102,3.6,3.9,92,0.00,,,0.00,0,TxWx,2013-03-05 09:33:00,
2013-03-05 03:38:00,31.2,28.0,29.92,East,99,6.6,7.8,92,0.00,,,0.00,0,TxWx,2013-03-05 09:38:00,
2013-03-05 03:44:00,31.1,28.0,29.92,East,95,13.5,13.5,92,0.00,,,0.00,0,TxWx,2013-03-05 09:44:00,
2013-03-05 03:49:00,31.2,28.0,29.92,East,91,11.4,11.4,92,0.00,,,0.00,0,TxWx,2013-03-05 09:49:00,
2013-03-05 03:54:00,31.2,28.0,29.92,East,99,6.9,10.2,91,0.00,,,0.00,0,TxWx,2013-03-05 09:54:00,
2013-03-05 03:59:00,31.1,28.0,29.92,East,92,13.2,13.2,91,0.00,,,0.00,0,TxWx,2013-03-05 09:59:00,
2013-03-05 04:05:00,31.1,27.0,29.92,SE,139,10.8,11.4,90,0.00,,,0.00,0,TxWx,2013-03-05 10:05:00,
2013-03-05 04:10:00,31.2,27.0,29.91,ENE,72,5.4,5.7,90,0.00,,,0.00,0,TxWx,2013-03-05 10:10:00,
2013-03-05 04:15:00,31.2,27.0,29.91,East,88,7.2,7.2,90,0.00,,,0.00,0,TxWx,2013-03-05 10:15:00,
2013-03-05 04:20:00,31.2,27.0,29.91,East,96,6.3,7.8,89,0.00,,,0.00,0,TxWx,2013-03-05 10:20:00,
2013-03-05 04:26:00,31.2,27.0,29.91,East,81,6.3,6.9,89,0.00,,,0.00,0,TxWx,2013-03-05 10:26:00,
2013-03-05 04:31:00,31.2,27.0,29.91,East,97,13.5,13.5,88,0.00,,,0.00,0,TxWx,2013-03-05 10:31:00,
2013-03-05 04:36:00,31.2,27.0,29.91,ESE,111,9.3,10.2,88,0.00,,,0.00,0,TxWx,2013-03-05 10:36:00,
2013-03-05 04:41:00,31.2,27.0,29.91,East,86,15.0,15.9,88,0.00,,,0.00,0,TxWx,2013-03-05 10:41:00,
2013-03-05 04:46:00,31.3,27.0,29.90,East,90,9.3,9.6,87,0.00,,,0.00,0,TxWx,2013-03-05 10:46:00,
2013-03-05 04:52:00,31.3,27.0,29.90,ENE,66,9.6,9.6,87,0.00,,,0.00,0,TxWx,2013-03-05 10:52:00,
2013-03-05 04:57:00,31.3,27.0,29.90,East,91,6.6,7.2,87,0.00,,,0.00,0,TxWx,2013-03-05 10:57:00,
2013-03-05 05:02:00,31.3,26.0,29.90,ESE,105,10.8,10.8,87,0.00,,,0.00,0,TxWx,2013-03-05 11:02:00,
2013-03-05 05:07:00,31.4,26.0,29.90,ENE,62,10.8,10.8,87,0.00,,,0.00,0,TxWx,2013-03-05 11:07:00,
2013-03-05 05:12:00,31.4,26.0,29.90,East,101,7.2,8.7,86,0.00,,,0.00,0,TxWx,2013-03-05 11:12:00,
2013-03-05 05:18:00,31.4,26.0,29.90,East,100,8.1,8.1,86,0.00,,,0.00,0,TxWx,2013-03-05 11:18:00,
2013-03-05 05:23:00,31.4,26.0,29.90,ENE,74,10.2,12.0,86,0.00,,,0.00,0,TxWx,2013-03-05 11:23:00,
2013-03-05 05:28:00,31.4,26.0,29.90,ENE,71,12.3,15.3,85,0.00,,,0.00,0,TxWx,2013-03-05 11:28:00,
2013-03-05 05:33:00,31.3,26.0,29.90,East,90,9.0,9.9,85,0.00,,,0.00,0,TxWx,2013-03-05 11:33:00,
2013-03-05 05:39:00,31.3,26.0,29.90,ESE,108,12.0,12.6,85,0.00,,,0.00,0,TxWx,2013-03-05 11:39:00,
2013-03-05 05:44:00,31.4,26.0,29.90,ESE,104,7.5,7.5,85,0.00,,,0.00,0,TxWx,2013-03-05 11:44:00,
2013-03-05 05:49:00,31.4,26.0,29.90,East,97,4.2,5.7,85,0.00,,,0.00,0,TxWx,2013-03-05 11:49:00,
2013-03-05 05:54:00,31.5,26.0,29.90,ENE,69,9.0,9.0,85,0.00,,,0.00,0,TxWx,2013-03-05 11:54:00,
2013-03-05 05:59:00,31.5,26.0,29.90,East,101,6.3,7.2,85,0.00,,,0.00,0,TxWx,2013-03-05 11:59:00,
2013-03-05 06:04:00,31.6,27.0,29.90,ESE,112,8.7,9.0,84,0.00,,,0.00,0,TxWx,2013-03-05 12:04:00,
2013-03-05 06:09:00,31.6,27.0,29.90,ESE,123,6.3,6.9,84,0.00,,,0.00,0,TxWx,2013-03-05 12:09:00,
2013-03-05 06:15:00,31.5,27.0,29.90,SE,138,9.0,11.4,84,0.00,,,0.00,0,TxWx,2013-03-05 12:15:00,
2013-03-05 06:20:00,31.5,27.0,29.90,East,92,10.8,10.8,84,0.00,,,0.00,0,TxWx,2013-03-05 12:20:00,
2013-03-05 06:25:00,31.4,26.0,29.90,East,83,11.7,11.7,84,0.00,,,0.00,1,TxWx,2013-03-05 12:25:00,
2013-03-05 06:30:00,31.4,26.0,29.90,NE,35,12.3,12.3,84,0.00,,,0.00,3,TxWx,2013-03-05 12:30:00,
2013-03-05 06:36:00,31.3,26.0,29.90,ESE,105,8.7,9.6,84,0.00,,,0.00,6,TxWx,2013-03-05 12:36:00,
2013-03-05 06:41:00,31.3,26.0,29.90,ESE,110,5.7,6.3,85,0.00,,,0.00,7,TxWx,2013-03-05 12:41:00,
2013-03-05 06:46:00,31.1,26.0,29.89,East,95,7.2,8.1,86,0.00,,,0.00,10,TxWx,2013-03-05 12:46:00,
2013-03-05 06:51:00,30.8,27.0,29.89,SE,136,6.0,8.4,87,0.00,,,0.00,13,TxWx,2013-03-05 12:51:00,
2013-03-05 06:57:00,30.6,27.0,29.89,East,100,9.0,11.1,88,0.00,,,0.00,16,TxWx,2013-03-05 12:57:00,
2013-03-05 07:02:00,30.4,26.0,29.89,ESE,107,13.2,16.2,89,0.00,,,0.00,19,TxWx,2013-03-05 13:02:00,
2013-03-05 07:07:00,30.4,26.0,29.88,East,82,9.9,9.9,90,0.00,,,0.00,23,TxWx,2013-03-05 13:07:00,
2013-03-05 07:12:00,30.5,26.0,29.88,NE,55,5.7,6.6,90,0.00,,,0.00,25,TxWx,2013-03-05 13:12:00,
2013-03-05 07:18:00,30.6,27.0,29.88,East,79,6.6,6.6,90,0.00,,,0.00,25,TxWx,2013-03-05 13:18:00,
2013-03-05 07:23:00,30.7,27.0,29.88,SE,131,6.3,6.3,90,0.00,,,0.00,23,TxWx,2013-03-05 13:23:00,
2013-03-05 07:28:00,30.9,27.0,29.89,NE,56,4.5,5.1,90,0.00,,,0.00,18,TxWx,2013-03-05 13:28:00,
2013-03-05 07:34:00,31.0,27.0,29.88,East,97,8.4,9.9,89,0.00,,,0.00,21,TxWx,2013-03-05 13:34:00,
2013-03-05 07:39:00,31.1,27.0,29.88,ESE,123,12.6,12.6,89,0.00,,,0.00,33,TxWx,2013-03-05 13:39:00,
2013-03-05 07:44:00,31.2,27.0,29.88,ESE,108,6.6,6.6,88,0.00,,,0.00,53,TxWx,2013-03-05 13:44:00,
2013-03-05 07:49:00,31.3,27.0,29.88,ESE,103,7.8,9.6,87,0.00,,,0.00,57,TxWx,2013-03-05 13:49:00,
2013-03-05 07:54:00,31.5,27.0,29.88,ESE,107,11.1,11.1,87,0.00,,,0.00,70,TxWx,2013-03-05 13:54:00,
2013-03-05 07:59:00,31.6,27.0,29.88,ENE,78,12.3,12.3,86,0.00,,,0.00,59,TxWx,2013-03-05 13:59:00,
2013-03-05 08:04:00,31.7,27.0,29.87,East,81,6.0,6.6,85,0.00,,,0.00,68,TxWx,2013-03-05 14:04:00,
2013-03-05 08:09:00,31.8,27.0,29.87,ENE,71,5.1,5.7,85,0.00,,,0.00,64,TxWx,2013-03-05 14:09:00,
2013-03-05 08:14:00,31.8,27.0,29.87,East,91,8.1,8.4,84,0.00,,,0.00,51,TxWx,2013-03-05 14:14:00,
2013-03-05 08:20:00,31.9,27.0,29.87,SE,138,6.3,6.3,84,0.00,,,0.00,60,TxWx,2013-03-05 14:20:00,
2013-03-05 08:25:00,32.0,26.0,29.87,ENE,78,10.2,10.8,83,0.00,,,0.00,83,TxWx,2013-03-05 14:25:00,
2013-03-05 08:30:00,32.2,26.0,29.86,East,99,11.7,13.2,81,0.00,,,0.00,91,TxWx,2013-03-05 14:30:00,
2013-03-05 08:35:00,32.4,26.0,29.86,ESE,103,8.1,8.1,80,0.00,,,0.00,95,TxWx,2013-03-05 14:35:00,
2013-03-05 08:40:00,32.5,25.0,29.86,ENE,66,9.3,11.1,79,0.00,,,0.00,84,TxWx,2013-03-05 14:40:00,
2013-03-05 08:45:00,32.5,26.0,29.86,East,100,8.7,11.1,79,0.00,,,0.00,56,TxWx,2013-03-05 14:45:00,
2013-03-05 08:51:00,32.6,26.0,29.86,ESE,110,8.4,8.4,79,0.00,,,0.00,63,TxWx,2013-03-05 14:51:00,
2013-03-05 08:56:00,32.6,26.0,29.86,East,88,6.9,6.9,78,0.00,,,0.00,97,TxWx,2013-03-05 14:56:00,
2013-03-05 09:01:00,32.6,26.0,29.86,SE,125,11.7,13.8,78,0.00,,,0.00,79,TxWx,2013-03-05 15:01:00,
2013-03-05 09:06:00,32.5,25.0,29.86,SE,129,10.2,12.3,79,0.00,,,0.00,78,TxWx,2013-03-05 15:06:00,
2013-03-05 09:12:00,32.1,26.0,29.86,East,80,7.5,8.7,80,0.00,,,0.00,56,TxWx,2013-03-05 15:12:00,
2013-03-05 09:17:00,31.8,26.0,29.87,East,83,2.7,3.3,83,0.00,,,0.00,42,TxWx,2013-03-05 15:17:00,
2013-03-05 09:22:00,31.7,27.0,29.87,East,91,14.1,14.1,84,0.00,,,0.00,60,TxWx,2013-03-05 15:22:00,
2013-03-05 09:27:00,31.6,27.0,29.87,ESE,105,9.3,12.3,85,0.00,,,0.00,82,TxWx,2013-03-05 15:27:00,
2013-03-05 09:32:00,31.5,27.0,29.86,ESE,109,11.4,11.4,86,0.00,,,0.00,92,TxWx,2013-03-05 15:32:00,
2013-03-05 09:37:00,31.5,27.0,29.86,East,90,3.3,3.9,87,0.00,,,0.00,91,TxWx,2013-03-05 15:37:00,
2013-03-05 09:42:00,31.5,27.0,29.86,ESE,104,8.1,9.0,86,0.00,,,0.00,80,TxWx,2013-03-05 15:42:00,
2013-03-05 09:47:00,31.5,27.0,29.86,ESE,105,11.4,15.9,86,0.00,,,0.00,61,TxWx,2013-03-05 15:47:00,
2013-03-05 09:52:00,31.5,27.0,29.86,NNW,340,8.1,8.7,86,0.00,,,0.00,53,TxWx,2013-03-05 15:52:00,
2013-03-05 09:58:00,31.4,26.0,29.86,East,91,10.2,10.2,86,0.00,,,0.00,56,TxWx,2013-03-05 15:58:00,
2013-03-05 10:03:00,31.3,27.0,29.86,NNW,345,7.5,9.3,87,0.00,,,0.00,68,TxWx,2013-03-05 16:03:00,
2013-03-05 10:08:00,31.2,27.0,29.85,East,95,7.5,7.5,88,0.00,,,0.00,81,TxWx,2013-03-05 16:08:00,
2013-03-05 10:13:00,31.1,27.0,29.85,East,81,9.6,9.6,88,0.00,,,0.00,126,TxWx,2013-03-05 16:13:00,
2013-03-05 10:18:00,30.9,27.0,29.84,ENE,78,12.0,12.0,89,0.00,,,0.00,180,TxWx,2013-03-05 16:18:00,
2013-03-05 10:23:00,31.0,27.0,29.83,SE,128,6.3,6.6,89,0.00,,,0.00,199,TxWx,2013-03-05 16:23:00,
2013-03-05 10:28:00,31.0,27.0,29.83,East,97,7.5,7.5,90,0.00,,,0.00,197,TxWx,2013-03-05 16:28:00,
2013-03-05 10:33:00,30.9,27.0,29.83,ESE,104,12.3,16.2,90,0.00,,,0.00,157,TxWx,2013-03-05 16:33:00,
2013-03-05 10:39:00,31.0,28.0,29.83,ESE,112,9.6,9.6,91,0.00,,,0.00,130,TxWx,2013-03-05 16:39:00,
2013-03-05 10:44:00,30.9,28.0,29.82,East,87,7.2,7.2,91,0.06,,,0.01,116,TxWx,2013-03-05 16:44:00,
2013-03-05 10:49:00,30.8,28.0,29.83,SE,124,6.3,6.3,91,0.06,,,0.01,113,TxWx,2013-03-05 16:49:00,
2013-03-05 10:54:00,30.8,28.0,29.82,East,84,5.1,5.1,91,0.00,,,0.01,114,TxWx,2013-03-05 16:54:00,
2013-03-05 11:00:00,30.8,28.0,29.82,East,97,6.9,6.9,91,0.00,,,0.01,123,TxWx,2013-03-05 17:00:00,
2013-03-05 11:05:00,30.7,28.0,29.81,NE,55,10.5,11.1,92,0.00,,,0.01,119,TxWx,2013-03-05 17:05:00,
2013-03-05 11:10:00,30.7,28.0,29.81,ENE,69,6.3,6.9,92,0.00,,,0.01,105,TxWx,2013-03-05 17:10:00,
2013-03-05 11:15:00,30.5,28.0,29.81,ENE,66,8.4,8.4,93,0.00,,,0.01,130,TxWx,2013-03-05 17:15:00,
2013-03-05 11:20:00,30.6,28.0,29.81,NE,41,7.5,7.5,93,0.00,,,0.01,112,TxWx,2013-03-05 17:20:00,
2013-03-05 11:26:00,30.6,28.0,29.81,ENE,72,6.3,6.3,93,0.00,,,0.01,124,TxWx,2013-03-05 17:26:00,
2013-03-05 11:31:00,30.6,28.0,29.81,ENE,77,5.4,5.7,93,0.00,,,0.01,119,TxWx,2013-03-05 17:31:00,
2013-03-05 11:36:00,30.4,27.0,29.82,ESE,106,13.2,13.5,94,0.00,,,0.01,106,TxWx,2013-03-05 17:36:00,
2013-03-05 11:41:00,30.4,27.0,29.82,East,86,14.7,14.7,94,0.00,,,0.01,104,TxWx,2013-03-05 17:41:00,
2013-03-05 11:46:00,30.5,28.0,29.81,East,92,3.0,3.3,94,0.00,,,0.01,121,TxWx,2013-03-05 17:46:00,
2013-03-05 11:52:00,30.4,27.0,29.81,East,80,13.2,13.2,94,0.00,,,0.01,132,TxWx,2013-03-05 17:52:00,
2013-03-05 11:57:00,30.4,28.0,29.81,East,94,10.2,10.8,95,0.00,,,0.01,132,TxWx,2013-03-05 17:57:00,
2013-03-05 12:02:00,30.5,28.0,29.81,SE,134,3.9,3.9,95,0.00,,,0.01,114,TxWx,2013-03-05 18:02:00,
2013-03-05 12:07:00,30.5,29.0,29.81,ESE,107,10.5,10.5,95,0.00,,,0.01,117,TxWx,2013-03-05 18:07:00,
2013-03-05 12:13:00,30.4,28.0,29.80,ENE,68,10.8,11.1,95,0.00,,,0.01,96,TxWx,2013-03-05 18:13:00,
2013-03-05 12:18:00,30.4,28.0,29.80,East,85,6.3,6.3,95,0.00,,,0.01,102,TxWx,2013-03-05 18:18:00,
2013-03-05 12:23:00,30.4,28.0,29.80,East,82,10.2,10.2,95,0.00,,,0.01,131,TxWx,2013-03-05 18:23:00,
2013-03-05 12:28:00,30.5,28.0,29.79,ENE,65,10.5,11.1,95,0.00,,,0.01,140,TxWx,2013-03-05 18:28:00,
2013-03-05 12:33:00,30.6,29.0,29.79,East,99,6.9,9.0,95,0.00,,,0.01,148,TxWx,2013-03-05 18:33:00,
2013-03-05 12:38:00,30.4,28.0,29.79,ENE,57,3.9,4.5,95,0.00,,,0.01,110,TxWx,2013-03-05 18:38:00,
2013-03-05 12:43:00,30.5,29.0,29.79,ENE,73,5.1,5.7,95,0.00,,,0.01,98,TxWx,2013-03-05 18:43:00,
2013-03-05 12:49:00,30.5,28.0,29.78,ENE,77,4.8,4.8,95,0.00,,,0.01,102,TxWx,2013-03-05 18:49:00,
2013-03-05 12:54:00,30.5,29.0,29.78,ENE,68,4.2,4.8,96,0.00,,,0.01,86,TxWx,2013-03-05 18:54:00,
2013-03-05 12:59:00,30.4,28.0,29.78,East,86,6.3,6.3,96,0.00,,,0.01,92,TxWx,2013-03-05 18:59:00,
2013-03-05 13:04:00,30.3,28.0,29.78,East,88,5.7,6.0,96,0.00,,,0.01,109,TxWx,2013-03-05 19:04:00,
2013-03-05 13:09:00,30.4,28.0,29.77,East,87,7.5,8.4,96,0.00,,,0.01,120,TxWx,2013-03-05 19:09:00,
2013-03-05 13:14:00,30.4,28.0,29.77,NE,51,11.1,11.1,96,0.00,,,0.01,125,TxWx,2013-03-05 19:14:00,
2013-03-05 13:20:00,30.4,28.0,29.77,ENE,63,8.4,8.4,96,0.00,,,0.01,109,TxWx,2013-03-05 19:20:00,
2013-03-05 13:25:00,30.4,28.0,29.77,ENE,67,10.8,10.8,96,0.00,,,0.01,120,TxWx,2013-03-05 19:25:00,
2013-03-05 13:30:00,30.5,28.0,29.76,East,80,5.4,5.4,96,0.00,,,0.01,100,TxWx,2013-03-05 19:30:00,
2013-03-05 13:35:00,30.5,29.0,29.76,ENE,59,7.5,7.5,97,0.00,,,0.01,78,TxWx,2013-03-05 19:35:00,
2013-03-05 13:41:00,30.4,28.0,29.76,NE,51,9.0,9.3,96,0.00,,,0.01,63,TxWx,2013-03-05 19:41:00,
2013-03-05 13:46:00,30.2,28.0,29.76,ENE,70,13.2,13.2,97,0.00,,,0.01,74,TxWx,2013-03-05 19:46:00,
2013-03-05 13:51:00,30.1,28.0,29.76,ENE,78,6.9,7.5,97,0.00,,,0.01,94,TxWx,2013-03-05 19:51:00,
2013-03-05 13:56:00,30.0,28.0,29.75,ENE,65,11.4,11.4,97,0.00,,,0.01,89,TxWx,2013-03-05 19:56:00,
2013-03-05 14:01:00,30.1,28.0,29.75,ENE,64,4.5,4.8,97,0.00,,,0.01,91,TxWx,2013-03-05 20:01:00,
2013-03-05 14:07:00,30.2,28.0,29.76,ENE,57,6.6,7.5,97,0.00,,,0.01,79,TxWx,2013-03-05 20:07:00,
2013-03-05 14:12:00,30.2,28.0,29.75,ENE,68,6.3,6.3,97,0.00,,,0.01,66,TxWx,2013-03-05 20:12:00,
2013-03-05 14:17:00,30.2,28.0,29.75,ENE,63,6.9,6.9,97,0.00,,,0.01,67,TxWx,2013-03-05 20:17:00,
2013-03-05 14:22:00,29.9,28.0,29.75,ENE,58,14.1,14.7,97,0.00,,,0.01,73,TxWx,2013-03-05 20:22:00,
2013-03-05 14:27:00,29.9,28.0,29.75,NE,37,9.0,9.0,97,0.00,,,0.01,77,TxWx,2013-03-05 20:27:00,
2013-03-05 14:32:00,29.8,28.0,29.75,ENE,59,10.5,12.3,97,0.00,,,0.01,81,TxWx,2013-03-05 20:32:00,
2013-03-05 14:38:00,29.9,28.0,29.75,NE,50,10.2,10.5,97,0.00,,,0.01,79,TxWx,2013-03-05 20:38:00,
2013-03-05 14:43:00,29.8,28.0,29.75,NE,55,11.1,12.6,97,0.00,,,0.01,78,TxWx,2013-03-05 20:43:00,
2013-03-05 14:48:00,29.8,28.0,29.75,NE,51,8.1,8.1,98,0.00,,,0.01,84,TxWx,2013-03-05 20:48:00,
2013-03-05 14:54:00,29.7,28.0,29.75,ENE,74,4.5,4.5,98,0.00,,,0.01,90,TxWx,2013-03-05 20:54:00,
2013-03-05 14:59:00,29.7,28.0,29.75,NE,38,8.4,9.0,97,0.00,,,0.01,83,TxWx,2013-03-05 20:59:00,
2013-03-05 15:04:00,29.6,28.0,29.75,ENE,71,10.8,11.1,97,0.00,,,0.01,74,TxWx,2013-03-05 21:04:00,
2013-03-05 15:09:00,29.6,28.0,29.75,ENE,60,8.1,8.1,98,0.00,,,0.01,57,TxWx,2013-03-05 21:09:00,
2013-03-05 15:14:00,29.6,28.0,29.76,ENE,64,7.2,8.7,98,0.00,,,0.01,48,TxWx,2013-03-05 21:14:00,
2013-03-05 15:19:00,29.5,28.0,29.75,NE,53,7.8,7.8,98,0.00,,,0.01,47,TxWx,2013-03-05 21:19:00,
2013-03-05 15:25:00,29.4,27.0,29.76,ENE,63,4.8,5.1,98,0.00,,,0.01,45,TxWx,2013-03-05 21:25:00,
2013-03-05 15:30:00,29.2,27.0,29.75,ENE,69,10.2,10.2,98,0.00,,,0.01,51,TxWx,2013-03-05 21:30:00,
2013-03-05 15:35:00,29.4,27.0,29.76,East,89,4.2,4.2,98,0.00,,,0.01,54,TxWx,2013-03-05 21:35:00,
2013-03-05 15:40:00,29.4,27.0,29.76,NE,35,5.4,6.6,98,0.00,,,0.01,51,TxWx,2013-03-05 21:40:00,
2013-03-05 15:45:00,29.4,27.0,29.76,North,10,4.8,5.4,98,0.00,,,0.01,50,TxWx,2013-03-05 21:45:00,
2013-03-05 15:51:00,29.2,27.0,29.77,NE,42,4.8,5.4,98,0.00,,,0.01,50,TxWx,2013-03-05 21:51:00,
2013-03-05 15:56:00,29.3,27.0,29.77,ENE,57,3.3,3.6,98,0.00,,,0.01,46,TxWx,2013-03-05 21:56:00,
2013-03-05 16:01:00,29.2,27.0,29.77,NE,52,6.6,6.9,98,0.00,,,0.01,40,TxWx,2013-03-05 22:01:00,
2013-03-05 16:06:00,29.2,27.0,29.77,NE,34,4.8,5.4,98,0.00,,,0.01,39,TxWx,2013-03-05 22:06:00,
2013-03-05 16:11:00,29.1,27.0,29.77,NE,48,7.8,8.1,98,0.00,,,0.01,35,TxWx,2013-03-05 22:11:00,
2013-03-05 16:17:00,29.2,27.0,29.77,NNE,23,3.6,3.9,98,0.00,,,0.01,34,TxWx,2013-03-05 22:17:00,
2013-03-05 16:22:00,29.2,27.0,29.77,NE,39,4.2,4.2,98,0.00,,,0.01,28,TxWx,2013-03-05 22:22:00,
2013-03-05 16:27:00,29.0,27.0,29.77,NE,55,7.2,7.8,97,0.00,,,0.01,26,TxWx,2013-03-05 22:27:00,
2013-03-05 16:32:00,29.0,27.0,29.78,North,6,3.3,3.9,98,0.00,,,0.01,22,TxWx,2013-03-05 22:32:00,
2013-03-05 16:37:00,28.8,27.0,29.78,NNE,28,7.5,8.4,98,0.00,,,0.01,20,TxWx,2013-03-05 22:37:00,
2013-03-05 16:43:00,28.6,27.0,29.78,NE,48,7.2,7.2,97,0.00,,,0.01,18,TxWx,2013-03-05 22:43:00,
2013-03-05 16:48:00,28.6,27.0,29.78,NE,36,4.8,5.1,98,0.00,,,0.01,16,TxWx,2013-03-05 22:48:00,
2013-03-05 16:53:00,28.5,27.0,29.78,NNE,20,6.3,6.3,98,0.00,,,0.01,15,TxWx,2013-03-05 22:53:00,
2013-03-05 16:58:00,28.6,27.0,29.78,NE,37,3.6,3.9,98,0.00,,,0.01,13,TxWx,2013-03-05 22:58:00,
2013-03-05 17:03:00,28.7,27.0,29.78,NNE,30,4.8,4.8,98,0.00,,,0.01,11,TxWx,2013-03-05 23:03:00,
2013-03-05 17:08:00,28.7,27.0,29.78,NNW,343,3.3,3.6,98,0.00,,,0.01,8,TxWx,2013-03-05 23:08:00,
2013-03-05 17:14:00,28.6,27.0,29.79,NNE,13,12.0,12.0,97,0.00,,,0.01,7,TxWx,2013-03-05 23:14:00,
2013-03-05 17:19:00,28.6,27.0,29.78,NNE,17,6.6,6.6,98,0.00,,,0.01,5,TxWx,2013-03-05 23:19:00,
2013-03-05 17:24:00,28.4,26.0,29.79,NE,36,9.3,9.3,97,0.00,,,0.01,4,TxWx,2013-03-05 23:24:00,
2013-03-05 17:29:00,28.2,26.0,29.79,NNE,12,6.6,7.2,98,0.00,,,0.01,2,TxWx,2013-03-05 23:29:00,
2013-03-05 17:34:00,28.2,26.0,29.79,NNE,26,3.9,3.9,98,0.00,,,0.01,1,TxWx,2013-03-05 23:34:00,
2013-03-05 17:40:00,28.2,26.0,29.80,NE,36,7.5,7.5,98,0.00,,,0.01,0,TxWx,2013-03-05 23:40:00,
2013-03-05 17:45:00,28.0,26.0,29.80,NNE,20,7.8,8.4,98,0.00,,,0.01,0,TxWx,2013-03-05 23:45:00,
2013-03-05 17:50:00,28.0,26.0,29.80,NNE,27,5.4,6.0,98,0.00,,,0.01,0,TxWx,2013-03-05 23:50:00,
2013-03-05 17:55:00,28.0,26.0,29.80,NNE,15,6.9,6.9,98,0.00,,,0.01,0,TxWx,2013-03-05 23:55:00,
2013-03-05 18:00:00,27.9,26.0,29.80,NNE,24,4.5,5.1,98,0.00,,,0.01,0,TxWx,2013-03-06 00:00:00,
2013-03-05 18:05:00,27.8,26.0,29.80,North,9,5.7,6.0,98,0.00,,,0.01,0,TxWx,2013-03-06 00:05:00,
2013-03-05 18:10:00,27.9,26.0,29.80,NNE,25,3.6,3.9,98,0.00,,,0.01,0,TxWx,2013-03-06 00:10:00,
2013-03-05 18:16:00,27.9,26.0,29.81,NNE,22,5.7,6.0,98,0.00,,,0.01,0,TxWx,2013-03-06 00:16:00,
2013-03-05 18:21:00,27.8,26.0,29.81,North,10,5.1,6.3,98,0.00,,,0.01,0,TxWx,2013-03-06 00:21:00,
2013-03-05 18:26:00,27.9,26.0,29.81,NNE,15,6.6,6.6,98,0.00,,,0.01,0,TxWx,2013-03-06 00:26:00,
2013-03-05 18:31:00,27.9,26.0,29.81,NNE,23,5.1,5.1,98,0.00,,,0.01,0,TxWx,2013-03-06 00:31:00,
2013-03-05 18:36:00,27.9,26.0,29.81,North,352,6.6,6.6,98,0.00,,,0.01,0,TxWx,2013-03-06 00:36:00,
2013-03-05 18:41:00,27.9,26.0,29.81,NNE,18,8.4,8.4,98,0.00,,,0.01,0,TxWx,2013-03-06 00:41:00,
2013-03-05 18:46:00,28.0,26.0,29.81,NNE,27,6.9,9.0,98,0.00,,,0.01,0,TxWx,2013-03-06 00:46:00,
2013-03-05 18:52:00,28.0,26.0,29.81,NNE,24,9.3,9.3,98,0.00,,,0.01,0,TxWx,2013-03-06 00:52:00,
2013-03-05 18:57:00,28.1,26.0,29.81,NNW,329,4.2,5.1,98,0.00,,,0.01,0,TxWx,2013-03-06 00:57:00,
2013-03-05 19:02:00,28.2,26.0,29.81,North,9,3.9,3.9,98,0.00,,,0.01,0,TxWx,2013-03-06 01:02:00,
2013-03-05 19:07:00,28.2,26.0,29.81,North,2,6.0,6.6,98,0.00,,,0.01,0,TxWx,2013-03-06 01:07:00,
2013-03-05 19:13:00,28.4,26.0,29.81,NNE,18,3.3,3.6,98,0.00,,,0.01,0,TxWx,2013-03-06 01:13:00,
2013-03-05 19:18:00,28.4,26.0,29.81,North,7,5.7,6.0,98,0.00,,,0.01,0,TxWx,2013-03-06 01:18:00,
2013-03-05 19:23:00,28.5,26.0,29.81,North,355,5.7,5.7,98,0.00,,,0.01,0,TxWx,2013-03-06 01:23:00,
2013-03-05 19:28:00,28.6,27.0,29.81,NNE,16,6.6,6.6,98,0.00,,,0.01,0,TxWx,2013-03-06 01:28:00,
2013-03-05 19:33:00,28.7,27.0,29.81,NNE,12,2.1,2.1,98,0.00,,,0.01,0,TxWx,2013-03-06 01:33:00,
2013-03-05 19:38:00,28.8,27.0,29.82,North,3,8.4,9.6,98,0.00,,,0.01,0,TxWx,2013-03-06 01:38:00,
2013-03-05 19:43:00,28.9,27.0,29.82,North,358,5.4,5.4,98,0.00,,,0.01,0,TxWx,2013-03-06 01:43:00,
2013-03-05 19:49:00,29.0,27.0,29.82,North,11,13.2,13.2,98,0.00,,,0.01,0,TxWx,2013-03-06 01:49:00,
2013-03-05 19:54:00,29.0,27.0,29.82,NNE,27,8.4,9.6,98,0.00,,,0.01,0,TxWx,2013-03-06 01:54:00,
2013-03-05 19:59:00,29.0,27.0,29.82,NNE,15,9.6,10.2,98,0.00,,,0.01,0,TxWx,2013-03-06 01:59:00,
2013-03-05 20:04:00,29.0,27.0,29.82,North,4,9.3,9.3,98,0.00,,,0.01,0,TxWx,2013-03-06 02:04:00,
2013-03-05 20:09:00,29.1,27.0,29.82,North,6,9.9,11.1,98,0.00,,,0.01,0,TxWx,2013-03-06 02:09:00,
2013-03-05 20:15:00,29.2,27.0,29.83,North,2,8.7,10.2,98,0.00,,,0.01,0,TxWx,2013-03-06 02:15:00,
2013-03-05 20:20:00,29.2,27.0,29.83,NNE,24,11.4,13.2,98,0.00,,,0.01,0,TxWx,2013-03-06 02:20:00,
2013-03-05 20:25:00,29.2,27.0,29.83,North,1,11.7,11.7,98,0.00,,,0.01,0,TxWx,2013-03-06 02:25:00,
2013-03-05 20:30:00,29.3,27.0,29.83,North,4,13.2,13.5,98,0.00,,,0.01,0,TxWx,2013-03-06 02:30:00,
2013-03-05 20:35:00,29.3,27.0,29.83,NNE,20,22.2,22.2,98,0.00,,,0.01,0,TxWx,2013-03-06 02:35:00,
2013-03-05 20:41:00,29.4,28.0,29.83,North,3,14.4,14.4,98,0.00,,,0.01,0,TxWx,2013-03-06 02:41:00,
2013-03-05 20:46:00,29.4,27.0,29.83,NE,34,19.2,19.2,98,0.00,,,0.01,0,TxWx,2013-03-06 02:46:00,
2013-03-05 20:51:00,29.3,27.0,29.84,NNE,24,15.0,15.0,98,0.00,,,0.01,0,TxWx,2013-03-06 02:51:00,
2013-03-05 20:56:00,29.3,27.0,29.84,NE,52,17.1,19.2,98,0.00,,,0.01,0,TxWx,2013-03-06 02:56:00,
2013-03-05 21:02:00,29.3,27.0,29.84,NNE,16,12.3,13.2,98,0.00,,,0.01,0,TxWx,2013-03-06 03:02:00,
2013-03-05 21:07:00,29.2,27.0,29.84,NNE,27,10.2,10.2,98,0.00,,,0.01,0,TxWx,2013-03-06 03:07:00,
2013-03-05 21:12:00,29.3,28.0,29.85,NNE,18,14.1,14.1,98,0.00,,,0.01,0,TxWx,2013-03-06 03:12:00,
2013-03-05 21:17:00,29.2,27.0,29.85,NNE,26,20.7,21.6,98,0.00,,,0.01,0,TxWx,2013-03-06 03:17:00,
2013-03-05 21:23:00,29.2,27.0,29.85,North,7,18.0,20.1,98,0.00,,,0.01,0,TxWx,2013-03-06 03:23:00,
2013-03-05 21:28:00,29.2,28.0,29.85,North,10,14.7,14.7,98,0.00,,,0.01,0,TxWx,2013-03-06 03:28:00,
2013-03-05 21:33:00,29.1,27.0,29.85,NNE,21,22.8,24.6,98,0.00,,,0.01,0,TxWx,2013-03-06 03:33:00,
2013-03-05 21:38:00,29.0,27.0,29.86,North,8,21.0,21.0,98,0.00,,,0.01,0,TxWx,2013-03-06 03:38:00,
2013-03-05 21:43:00,29.0,27.0,29.86,NNE,23,15.6,15.6,98,0.00,,,0.01,0,TxWx,2013-03-06 03:43:00,
2013-03-05 21:48:00,29.0,27.0,29.86,NNE,12,15.6,17.4,98,0.00,,,0.01,0,TxWx,2013-03-06 03:48:00,
2013-03-05 21:54:00,28.8,28.0,29.86,NNE,24,25.5,25.5,98,0.00,,,0.01,0,TxWx,2013-03-06 03:54:00,
2013-03-05 21:59:00,28.8,28.0,29.86,North,5,18.6,19.2,98,0.00,,,0.01,0,TxWx,2013-03-06 03:59:00,
2013-03-05 22:04:00,28.7,28.0,29.86,NNE,26,21.6,23.7,98,0.00,,,0.01,0,TxWx,2013-03-06 04:04:00,
2013-03-05 22:09:00,28.7,28.0,29.87,NNE,15,24.9,24.9,98,0.00,,,0.01,0,TxWx,2013-03-06 04:09:00,
2013-03-05 22:14:00,28.7,28.0,29.87,NE,54,14.1,14.1,98,0.00,,,0.01,0,TxWx,2013-03-06 04:14:00,
2013-03-05 22:19:00,28.7,28.0,29.88,NNE,28,15.0,19.5,98,0.00,,,0.01,0,TxWx,2013-03-06 04:19:00,
2013-03-05 22:24:00,28.8,28.0,29.88,North,10,12.9,13.8,98,0.00,,,0.01,0,TxWx,2013-03-06 04:24:00,
2013-03-05 22:29:00,28.8,28.0,29.88,NNE,14,12.9,12.9,98,0.00,,,0.01,0,TxWx,2013-03-06 04:29:00,
2013-03-05 22:34:00,28.8,28.0,29.88,North,353,12.3,15.6,98,0.00,,,0.01,0,TxWx,2013-03-06 04:34:00,
2013-03-05 22:39:00,28.8,28.0,29.88,NNE,22,8.4,8.7,98,0.00,,,0.01,0,TxWx,2013-03-06 04:39:00,
2013-03-05 22:45:00,28.7,28.0,29.88,NNE,28,12.0,12.3,98,0.00,,,0.01,0,TxWx,2013-03-06 04:45:00,
2013-03-05 22:50:00,28.5,28.0,29.89,North,11,11.1,11.1,98,0.00,,,0.01,0,TxWx,2013-03-06 04:50:00,
2013-03-05 22:55:00,28.3,26.0,29.89,NNE,33,17.7,17.7,98,0.00,,,0.01,0,TxWx,2013-03-06 04:55:00,
2013-03-05 23:00:00,28.3,27.0,29.89,NNE,27,16.8,16.8,98,0.00,,,0.01,0,TxWx,2013-03-06 05:00:00,
2013-03-05 23:05:00,28.3,26.0,29.89,North,11,19.2,20.4,98,0.00,,,0.01,0,TxWx,2013-03-06 05:05:00,
2013-03-05 23:06:00,28.3,26.0,29.89,North,356,13.5,18.0,98,0.00,,,0.01,0,TxWx,2013-03-06 05:06:00,
2013-03-05 23:11:00,28.3,27.0,29.89,NNE,14,15.0,15.0,98,0.00,,,0.01,0,TxWx,2013-03-06 05:11:00,
2013-03-05 23:16:00,28.3,26.0,29.89,North,9,7.8,7.8,98,0.00,,,0.01,0,TxWx,2013-03-06 05:16:00,
2013-03-05 23:21:00,28.3,26.0,29.89,NNE,14,13.2,13.2,98,0.00,,,0.01,0,TxWx,2013-03-06 05:21:00,
2013-03-05 23:26:00,28.3,26.0,29.90,North,2,6.6,6.6,98,0.00,,,0.01,0,TxWx,2013-03-06 05:26:00,
2013-03-05 23:32:00,28.3,26.0,29.90,NNE,17,12.3,12.9,98,0.00,,,0.01,0,TxWx,2013-03-06 05:32:00,
2013-03-05 23:37:00,28.3,26.0,29.90,NNE,14,11.1,11.1,98,0.00,,,0.01,0,TxWx,2013-03-06 05:37:00,
2013-03-05 23:42:00,28.3,26.0,29.90,North,6,18.6,23.4,98,0.00,,,0.01,0,TxWx,2013-03-06 05:42:00,
2013-03-05 23:47:00,28.3,26.0,29.90,NNE,30,12.0,12.0,98,0.00,,,0.01,0,TxWx,2013-03-06 05:47:00,
2013-03-05 23:52:00,28.3,26.0,29.90,North,8,18.0,19.5,98,0.00,,,0.01,0,TxWx,2013-03-06 05:52:00,
2013-03-05 23:57:00,28.4,26.0,29.91,NNE,14,12.9,14.4,98,0.00,,,0.01,0,TxWx,2013-03-06 05:57:00,